Index of /~phil/mbeam/problems

[ICO]NameLast modifiedSizeDescription

[PARENTDIR]Parent Directory   -  
[TXT]091119_bias_osc.html 2009-11-20 08:42 2.7K 
[TXT]11sep09_1390_rdr.html 2009-09-14 16:24 8.6K 
[   ]22mar05_osc0b.pdf 2005-03-24 19:33 19K 
[   ]22mar05_osc0b.ps 2005-03-24 19:33 35K 
[IMG]22mar05_osc0b_img.gif 2005-03-24 19:33 209K 
[   ]22mar05_oscTemp.pdf 2005-03-24 19:33 32K 
[   ]22mar05_oscTemp.ps 2005-03-24 19:33 75K 
[DIR]174khzripple/ 2011-10-20 14:12 -  
[   ]1350_alias_alfa.pdf 2005-10-17 19:40 13K 
[   ]1350_alias_alfa.ps 2005-10-17 19:40 29K 
[TXT]1350_alias_alfa_.html 2005-10-17 19:48 1.2K 
[TXT]1384birdie_mar09.html 2009-03-17 17:31 4.0K 
[TXT]1385birdie_feb09.html 2009-03-01 12:45 7.7K 
[IMG]1386rfi_23feb09.gif 2009-02-28 17:23 390K 
[   ]1386rfi_23feb09.pdf 2009-02-28 17:23 265K 
[   ]1386rfi_23feb09.ps 2009-02-28 17:23 433K 
[   ]1390rdr_11sep09.pdf 2009-09-14 15:30 506K 
[   ]1390rdr_11sep09.ps 2009-09-14 15:30 1.0M 
[IMG]1390rdr_11sep09_1.gif 2009-09-14 15:30 969K 
[IMG]1390rdr_11sep09_2.gif 2009-09-14 15:30 288K 
[   ]1390rdr_11sep09_2.pdf 2009-09-14 15:30 27K 
[   ]1390rdr_11sep09_2.ps 2009-09-14 15:30 56K 
[   ]111207_alfafb_test.pdf 2011-12-09 16:38 138K 
[   ]111207_alfafb_test.ps 2011-12-09 16:38 334K 
[   ]111207_alfafb_test_s..>2011-12-09 16:38 1.3M 
[   ]111207_alfafb_test_s..>2011-12-09 16:38 1.8M 
[IMG]a2010_21feb09.gif 2009-02-28 10:58 502K 
[   ]a2010_21feb09.pdf 2009-02-28 11:47 14K 
[   ]a2010_21feb09.ps 2009-02-28 11:46 29K 
[   ]a2010_pol1bdrift_19a..>2011-04-26 11:18 920K 
[   ]a2010_pol1bdrift_19a..>2011-04-26 11:18 1.6M 
[   ]a2130_TsysBm1_19oct1..>2011-10-22 11:11 683K 
[   ]a2130_TsysBm1_19oct1..>2011-10-22 11:11 1.7M 
[DIR]a2130caldefl/ 2016-06-01 18:20 -  
[IMG]a2133_18apr09_1.gif 2009-04-29 12:18 473K 
[IMG]a2133_18apr09_2.gif 2009-04-29 12:18 394K 
[IMG]a2133_18apr09_3.gif 2009-04-29 12:18 456K 
[IMG]a2133_18apr09_4.gif 2009-04-29 12:18 371K 
[   ]a2133_18apr09_rdrrfi..>2009-04-29 12:18 146K 
[   ]a2133_18apr09_rdrrfi.ps2009-04-29 12:18 284K 
[   ]a2133_1384_13mar09.pdf 2009-03-17 17:02 21K 
[   ]a2133_1384_13mar09.ps 2009-03-17 17:02 51K 
[IMG]a2133_apr09_rms_1.gif 2009-04-29 12:18 746K 
[IMG]a2133_apr09_rms_2.gif 2009-04-29 12:18 765K 
[   ]a2133_avgspc_13mar09..>2009-03-17 17:02 164K 
[   ]a2133_avgspc_13mar09.ps2009-03-17 17:02 491K 
[   ]alfaBm6Bias_jan16.pdf 2016-01-22 14:13 907K 
[   ]alfaBm6Bias_jan16.ps 2016-01-22 14:13 3.1M 
[TXT]alfaFBSwitchTest_07d..>2011-12-09 16:59 8.0K 
[   ]alfaMock_5Hz_14jun12..>2012-07-01 13:53 210K 
[   ]alfaMock_5Hz_14jun12..>2012-07-01 13:53 595K 
[   ]alfaMock_5Hz_14jun12..>2012-07-01 13:53 209K 
[   ]alfaMock_5Hz_14jun12..>2012-07-01 13:53 596K 
[   ]alfaMock_50Hz_14jun1..>2012-07-01 13:53 1.1M 
[   ]alfaMock_50Hz_14jun1..>2012-07-01 13:53 1.9M 
[   ]alfaMock_50Hz_14jun1..>2012-07-01 13:53 1.1M 
[   ]alfaMock_50Hz_14jun1..>2012-07-01 13:53 1.9M 
[   ]alfaMock_500Hz_14jun..>2012-07-01 13:52 2.2M 
[   ]alfaMock_500Hz_14jun..>2012-07-01 13:52 5.0M 
[   ]alfaMock_500Hz_14jun..>2012-07-01 13:53 2.2M 
[   ]alfaMock_500Hz_14jun..>2012-07-01 13:52 5.0M 
[   ]alfaPosAng_25nov09.pdf 2009-11-30 10:19 304K 
[   ]alfaPosAng_25nov09.ps 2009-11-30 10:19 728K 
[   ]alfabm6_160120_1.pdf 2016-01-22 14:13 1.7M 
[   ]alfabm6_160120_1.ps 2016-01-22 14:13 4.5M 
[   ]alfabm6_160120_2.pdf 2016-01-22 14:13 1.0M 
[   ]alfabm6_160120_2.ps 2016-01-22 14:13 1.8M 
[TXT]alfabm6b_jan16.html 2016-01-22 14:26 5.9K 
[DIR]apr11/ 2011-05-04 09:06 -  
[   ]beam2aDips_28nov11.pdf 2011-11-29 16:52 714K 
[   ]beam2aDips_28nov11.ps 2011-11-29 16:52 1.5M 
[TXT]beam2ajumps_28nov11...>2011-11-29 17:06 2.5K 
[   ]bias_osc_sinewave_19..>2009-11-20 08:32 58K 
[   ]bias_osc_sinewave_19..>2009-11-20 08:32 101K 
[TXT]birdiePix0b_mar05.html 2005-03-24 19:45 3.7K 
[TXT]birdiePix0b_sep04.html 2004-09-08 16:22 3.1K 
[   ]birdiePix0b_sep04.ps 2004-09-08 16:22 823K 
[TXT]birdie_1428_may05.html 2005-06-12 16:28 5.7K 
[   ]birdie_1428_may05_ch..>2005-06-12 15:44 724  
[   ]birdie_1428_may05_ch..>2005-06-12 16:02 26K 
[   ]birdie_1428_may05_ch..>2005-06-12 16:02 46K 
[IMG]birdie_1428_may05_dy..>2005-06-12 16:02 368K 
[IMG]birdie_1428_may05_dy..>2005-06-12 16:02 368K 
[IMG]birdie_1428_may05_ju..>2005-06-12 16:02 368K 
[IMG]birdie_1428_may05_ju..>2005-06-12 16:02 368K 
[   ]birdie_1428_may05_ju..>2005-06-12 16:02 145K 
[   ]birdie_1428_may05_ju..>2005-06-12 16:02 344K 
[   ]bm1a_01nov06.pdf 2006-11-11 17:12 908K 
[   ]bm1a_01nov06.ps 2006-11-11 17:11 1.4M 
[IMG]bm1a_01nov06_1.gif 2006-11-11 17:12 365K 
[IMG]bm1a_01nov06_2.gif 2006-11-11 17:12 382K 
[IMG]bm1a_01nov06_3.gif 2006-11-11 17:12 394K 
[TXT]bm1a_Tsys_19oct11.html 2011-10-22 11:23 2.8K 
[TXT]bm1a_noisy_01nov06.html2006-11-12 15:21 7.0K 
[   ]bm2a_apr10.notes 2010-04-13 09:01 587  
[IMG]bm2a_apr10_bad.GIF 2010-04-13 08:28 12K 
[IMG]bm2a_apr10_notSoBad.GIF2010-04-13 08:28 12K 
[TXT]bm4a_6b_a2010_6_7oct..>2011-10-07 10:57 2.7K 
[TXT]bm4a_Tsys_10oct11.html 2011-10-12 16:36 9.2K 
[TXT]bm5a_dropout_27sep11..>2011-09-28 15:36 2.9K 
[   ]bm5a_dropout_27sep11..>2011-09-28 12:23 259K 
[   ]bm5a_dropout_27sep11.ps2011-09-28 12:23 763K 
[   ]bm6b_03oct11.pdf 2011-10-04 09:09 679K 
[   ]bm6b_03oct11.ps 2011-10-04 09:09 1.8M 
[TXT]bm6b_dropout_03oct11..>2011-10-04 09:31 2.6K 
[   ]chkAlfaTsys_10oct11.pdf2011-10-11 11:01 427K 
[   ]chkAlfaTsys_10oct11.ps 2011-10-11 11:01 1.0M 
[TXT]dewarMonitoring_glit..>2012-06-02 12:25 9.6K 
[DIR]dewmonglitch/ 2012-06-02 10:48 -  
[TXT]faa_at_1380.html 2005-10-17 18:42 7.2K 
[   ]faa_at_1380.pdf 2005-03-27 12:33 36K 
[   ]faa_at_1380.ps 2005-03-27 12:32 87K 
[IMG]faa_at_1380_img.gif 2005-03-27 12:33 205K 
[IMG]faa_birdie_24mar05_a..>2005-03-30 14:41 266K 
[   ]faa_birdie_24mar05_a..>2005-03-30 14:41 334K 
[   ]faa_birdie_24mar05_a..>2005-03-30 14:41 481K 
[IMG]hilltop_feb09.gif 2009-03-01 10:36 381K 
[TXT]mockFits_positionErr..>2010-02-24 10:12 11K 
[TXT]noGlitchesWithAlfaBi..>2012-07-01 14:20 7.2K 
[   ]p2030_24may12_J1910p..>2012-06-12 18:02 248K 
[   ]p2030_24may12_J1910p..>2012-06-12 18:02 657K 
[   ]p2030_24may12_J1910p..>2012-06-12 18:02 1.7M 
[   ]p2030_24may12_J1910p..>2012-06-12 18:02 3.2M 
[   ]p2030_24may12_J1910p..>2012-06-12 18:02 1.1M 
[   ]p2030_24may12_J1910p..>2012-06-12 18:02 2.4M 
[   ]p2030_24may12_J1910p..>2012-06-12 18:02 1.1M 
[   ]p2030_24may12_J1910p..>2012-06-12 18:02 2.4M 
[TXT]p2030data_24may12.html 2012-06-14 14:41 10K 
[   ]rdrIntMods_30apr09_0..>2009-05-04 10:00 1.4M 
[   ]rdrIntMods_30apr09_0.ps2009-05-04 10:00 2.3M 
[   ]rdrIntMods_30apr09_1..>2009-05-04 10:00 1.4M 
[   ]rdrIntMods_30apr09_1.ps2009-05-04 10:00 2.4M 
[   ]rdrIntMods_30apr09_2..>2009-05-04 10:00 560K 
[   ]rdrIntMods_30apr09_2.ps2009-05-04 10:00 1.0M 
[IMG]rdr_harm.gif 2006-02-22 12:11 18K 
[TXT]rdr_intermods_pdev.html2009-12-09 08:14 71K 
[TXT]rdr_intermods_pdev_a..>2009-05-21 16:41 17K 
[   ]rdrfreq_23feb09.pdf 2009-02-28 17:24 625K 
[   ]rdrfreq_23feb09.ps 2009-02-28 17:24 1.1M 
[TXT]rdrrfi_apr09.html 2009-04-29 19:08 10K 
[   ]tpa2010_111006.pdf 2011-10-07 10:17 2.2M 
[   ]tpa2010_111006.ps 2011-10-07 10:17 3.6M 
[   ]tpa2010_111007.pdf 2011-10-07 10:17 1.0M 
[   ]tpa2010_111007.ps 2011-10-07 10:17 1.7M 
[   ]x111_13mar09.pdf 2009-03-17 17:02 21K 
[   ]x111_13mar09.ps 2009-03-17 17:02 43K